Showing default

TIANHUI 5A, 58199

Orbit data source: Space-Track

TIANHUI 5A, 58199 is a payload satellite owned by G. Cehui dili (CN) in SSO that was launched on Tue, 31 Oct 2023 UTC via a CHANG ZHENG 6A launch vehicle from the Taiyaun Space Center, China (TSC). Payload-class satellites include a variety of spacecraft equipped with specific instruments for various scientific and technological missions. These include communications satellites like Starlink; space stations such as the ISS; scientific satellites like the Hubble; Earth observation satellites from companies like Planet Labs, Umbra, and HawkEye 360; GPS; miniature CubeSats for education and research; and military/defense satellites.

Loading next visibility...
Identifier
58199, 2023-168A
Orbit
SSO
Country
Flag of CNCN / PRC
Related business
Manufacturer
DFH
Mission
Operational Civil Radar Imaging
Bus & Motor
CAST-2000?, Unknown motor
Mass
~1,000 kg wet, ~1,000 kg dry
Launch date (UTC)
2023-10-31 (2 years ago)
Launch vehicle
CHANG ZHENG 6A
Launch site
Taiyaun Space Center, China (TSC)
Object type
Payload
Rocket body
Debris
Shape & HBR
Box + 2 Pan, 3.0 m
Radar Cross Section
8.157 m², Large (>1 m²)

Expand to show TLE details & history
Last TLE update: 2 days ago

TLE from 2 days ago
0 TIANHUI 5A
1 58199U 23168A   25258.77167440  .00000401  00000-0  50120-4 0  9997
2 58199  97.8206 265.1038 0001671  84.0284 276.1122 14.87547479101809
Epoch: 2025-09-15T18:31Z
TLE epoch observation values (Epoch: 2025-09-15T18:31:12.668Z)
Latitude
-0.00007°
Longitude
-7.67051°
Altitude
608.511 km
Speed
7.555 km/s
True Right ascension
17h 40m 24s
True Declination
0° 00' 00"
Sunlit
Object was in daylight at epoch
Visualization orbit readout
Latitude
Unknown
Longitude
Unknown
Altitude
Unknown
Speed
Unknown
Apparent Right ascension
Unknown
Apparent Declination
Unknown
Sunlit
N/A
Visualization observer readout
Local Sidereal Time
18:49:12
Azimuth
Unknown
Elevation
Unknown
Doppler factor
Unknown
Orbital elements
Apogee altitude
603.795 km
Perigee altitude
601.462 km
Semi-major axis
6,980.765 km
Eccentricity
0.00017
Inclination
97.8206°
RAAN
265.1038°
Arg. of periapsis
84.0284°
True anomaly
276.09316°
Mean anomaly
276.1122°
Eccentric anomaly
276.10268°
Mean motion
3.72125 °/min
Orbital period
96.74 mins
BSTAR
0.00005012
Loading maneuver chart data...
Computing Atmospheric mass density...
Loading historical data...
Loading historical data...
Loading historical data...
Loading historical data...
Loading historical data...
Loading historical data...
Loading historical data...
Other satellites on launch #168 in the year 2023 (2023-10-31 UTC)

Documentation

Showing up to 5 results
|